Showing default

MERIDIAN 7, 40296

Orbit data source: Space-Track

MERIDIAN 7, 40296 is a payload satellite owned by VVKO (CIS) in HEO that was launched on Thu, 30 Oct 2014 UTC via a SOYUZ-2-1A launch vehicle from the Plesetsk Missile And Space Complex (PKMTR). Payload-class satellites include a variety of spacecraft equipped with specific instruments for various scientific and technological missions. These include communications satellites like Starlink; space stations such as the ISS; scientific satellites like the Hubble; Earth observation satellites from companies like Planet Labs, Umbra, and HawkEye 360; GPS; miniature CubeSats for education and research; and military/defense satellites.

Loading next visibility...
Identifier
40296, 2014-069A
Orbit
HEO
Country
Flag of CISCIS
Related business
Manufacturer
Resehetnev ISS
Mission
Operational Defense Communications
Bus & Motor
MERIDIAN, Unknown motor
Mass
~2,000 kg wet, ~2,000 kg dry
Launch date (UTC)
2014-10-30 (12 years ago)
Launch vehicle
SOYUZ-2-1A
Launch site
Plesetsk Missile And Space Complex (PKMTR)
Object type
Payload
Rocket body
Debris
Shape & HBR
Box + 2 Pan, 5.0 m
Radar Cross Section
14.304 m², Large (>1 m²)

Expand to show TLE details & history
Last TLE update: 18 hours ago

TLE from 18 hours ago
0 MERIDIAN 7
1 40296U 14069A   26264.39493086  .00000221  00000-0  00000-0 0  9998
2 40296  63.4472 205.9772 6614778 269.9037  20.2249  2.00605925 87166
Epoch: 2026-09-21T09:28Z
TLE epoch observation values (Epoch: 2026-09-21T09:28:42.026Z)
Latitude
0.00024°
Longitude
63.51063°
Altitude
8,582.23 km
Speed
6.187 km/s
True Right ascension
13h 43m 50s
True Declination
0° 00' 01"
Sunlit
Object was in daylight at epoch
Visualization orbit readout
Latitude
Unknown
Longitude
Unknown
Altitude
Unknown
Speed
Unknown
Apparent Right ascension
Unknown
Apparent Declination
Unknown
Sunlit
N/A
Visualization observer readout
Local Sidereal Time
21:02:07
Azimuth
Unknown
Elevation
Unknown
Doppler factor
Unknown
Orbital elements
Apogee altitude
37,743.803 km
Perigee altitude
2,611.605 km
Semi-major axis
26,555.841 km
Eccentricity
0.66148
Inclination
63.4472°
RAAN
205.9772°
Arg. of periapsis
269.9037°
True anomaly
90.14474°
Mean anomaly
20.2249°
Eccentric anomaly
48.69596°
Mean motion
0.50154 °/min
Orbital period
717.79 mins
BSTAR
0
Loading maneuver chart data...
Computing Atmospheric mass density...
Loading historical data...
Loading historical data...
Loading historical data...
Loading historical data...
Loading historical data...
Loading historical data...
Loading historical data...
Other satellites on launch #69 in the year 2014 (2014-10-30 UTC)

Documentation

Showing up to 5 results
|